SL-16 DEB, 22388

Orbit data source: Space-Track

SL-16 DEB, 22388 is space debris in LEO originally from a launch on Fri, 25 Dec 1992 UTC launched from the Tyuratam Missile And Space Complex (TTMTR). Debris objects in space refer to the collection of defunct objects orbiting the Earth. Examples of debris include non-operational satellites, rocket bodies, and fragments generated from explosions, collisions, or faulty payload assembly.

Loading next visibility...
Identifier
22388, 1992-093CD
Orbit
LEO
Country
Flag of CISCIS
Related business
Manufacturer
Unknown
Mission
Spacecraft
Bus & Motor
Unknown
Mass
Unknown
Launch date (UTC)
1992-12-25 (33 years ago)
Launch vehicle
Unknown
Launch site
Tyuratam Missile And Space Complex (TTMTR)
Object type
Payload
Rocket body
Debris
Shape & HBR
Unknown shape, 0.1 m
Radar Cross Section
Small (<0.1 m²)

Expand to show TLE details & history
Last TLE update: 1 day ago

TLE from 1 day ago
0 SL-16 DEB
1 22388U 92093CD  26126.24258537  .00001671  00000-0  79841-3 0  9996
2 22388  70.9632 280.2144 0095889 316.0864 101.4954 14.18250240706464
Epoch: 2026-05-06T05:49Z
TLE epoch observation values (Epoch: 2026-05-06T05:49:19.375Z)
Latitude
53.94944°
Longitude
-3.0882°
Altitude
854.013 km
Speed
7.424 km/s
True Right ascension
20h 33m 23s
True Declination
53° 47' 16"
Sunlit
Object was in daylight at epoch
Visualization orbit readout
Latitude
Unknown
Longitude
Unknown
Altitude
Unknown
Speed
Unknown
Apparent Right ascension
Unknown
Apparent Declination
Unknown
Sunlit
N/A
Visualization observer readout
Local Sidereal Time
18:15:42
Azimuth
Unknown
Elevation
Unknown
Doppler factor
Unknown
Orbital elements
Apogee altitude
898.312 km
Perigee altitude
760.091 km
Semi-major axis
7,207.338 km
Eccentricity
0.00959
Inclination
70.9632°
RAAN
280.2144°
Arg. of periapsis
316.0864°
True anomaly
102.56954°
Mean anomaly
101.4954°
Eccentric anomaly
102.03273°
Mean motion
3.54716 °/min
Orbital period
101.49 mins
BSTAR
0.00079841
Loading maneuver chart data...
Computing Atmospheric mass density...
Loading historical data...
Loading historical data...
Loading historical data...
Loading historical data...
Loading historical data...
Loading historical data...
Loading historical data...

Documentation

Showing up to 5 results
|